Lagoa Santa Air Base

SBLS · 米纳斯吉拉斯州, 巴西

METAR的历史 SBLS · Lagoa Santa Air Base

下面你可以看到过去几天的METARs。 选择年份以浏览从2007年开始的旧METAR。

2024年5月30日

时间 代码 天气 温度 能见度 天花板 METAR/SPECI
02:00
V
18 °C 10 km+ - 140° 140° 4 kt METAR SBCF 300500Z 14004KT CAVOK 18/14 Q1021
01:00
V
19 °C 10 km+ - 140° 140° 3 kt METAR SBCF 300400Z 14003KT CAVOK 19/14 Q1021
00:00
V
19 °C 10 km+ - 140° 140° 3 kt METAR SBCF 300300Z 14003KT CAVOK 19/14 Q1021

2024年5月29日

时间 代码 天气 温度 能见度 天花板 METAR/SPECI
23:00
V
19 °C 10 km+ - 220° 220° 2 kt METAR SBCF 300200Z 22002KT CAVOK 19/14 Q1021
22:00
V
21 °C 10 km+ - 170° 170° 2 kt METAR SBCF 300100Z 17002KT CAVOK 21/14 Q1021
21:00
V
22 °C 10 km+ - 150° 150° 3 kt METAR SBCF 300000Z 15003KT CAVOK 22/14 Q1021
20:00
V
22 °C 10 km+ - 180° 180° 3 kt METAR SBCF 292300Z 18003KT CAVOK 22/14 Q1021
19:00
V
23 °C 10 km+ - 230° 230° 3 kt METAR SBCF 292200Z 23003KT CAVOK 23/13 Q1020
18:00
V
24 °C 10 km+ - 220° 220° 4 kt METAR SBCF 292100Z 22004KT CAVOK 24/13 Q1020
17:00
V
26 °C 10 km+ - 230° 230° 6 kt METAR SBCF 292000Z 23006KT 9999 FEW045 26/14 Q1019
16:00
V
28 °C 10 km+ - 250° 250° 6 kt METAR SBCF 291900Z 25006KT 200V280 9999 FEW045 28/13 Q1019
15:00
V
28 °C 10 km+ - Var Var 5 kt METAR SBCF 291800Z VRB05KT 9999 FEW045 28/14 Q1019
14:00
V
28 °C 9 km - 230° 230° 7 kt METAR SBCF 291700Z 23007KT 180V280 9000 SCT045 28/14 Q1019
13:00
V
27 °C 10 km+ - 220° 220° 6 kt METAR SBCF 291600Z 22006KT 160V300 9999 SCT040 27/15 Q1020
12:00
V
26 °C 10 km+ - 220° 220° 7 kt METAR SBCF 291500Z 22007KT 170V260 9999 SCT033 26/16 Q1021
11:00
V
25 °C 10 km+ - Var Var 3 kt METAR SBCF 291400Z VRB03KT 9999 SCT030 25/16 Q1022
10:00
V
23 °C 10 km+ - 190° 190° 3 kt METAR SBCF 291300Z 19003KT 140V250 9999 FEW030 23/16 Q1022
09:00
V
21 °C 10 km+ - 150° 150° 3 kt METAR SBCF 291200Z 15003KT 110V180 CAVOK 21/16 Q1022
08:00
V
18 °C 10 km+ - Var Var 2 kt METAR SBCF 291100Z VRB02KT CAVOK 18/16 Q1022
07:00
V
17 °C 10 km+ - 180° 180° 2 kt METAR SBCF 291000Z 18002KT 9999 SCT048 17/16 Q1021
06:00
V
17 °C 10 km+ - 150° 150° 3 kt METAR SBCF 290900Z 15003KT CAVOK 17/15 Q1020
05:00
V
17 °C 10 km+ - 170° 170° 3 kt METAR SBCF 290800Z 17003KT CAVOK 17/15 Q1020
04:00
V
19 °C 10 km+ - 150° 150° 2 kt METAR SBCF 290700Z 15002KT CAVOK 19/15 Q1020
03:00
V
19 °C 10 km+ - 120° 120° 2 kt METAR SBCF 290600Z 12002KT CAVOK 19/15 Q1020
02:00
V
20 °C 10 km+ - 130° 130° 2 kt METAR SBCF 290500Z 13002KT CAVOK 20/15 Q1020
01:00
V
19 °C 10 km+ - 360° 360° 0 kt METAR SBCF 290400Z 00000KT CAVOK 19/15 Q1021
00:00
V
20 °C 10 km+ - 360° 360° 0 kt METAR SBCF 290300Z 00000KT CAVOK 20/15 Q1021

2024年5月28日

时间 代码 天气 温度 能见度 天花板 METAR/SPECI
23:00
V
21 °C 10 km+ - 230° 230° 2 kt METAR SBCF 290200Z 23002KT CAVOK 21/15 Q1021
22:00
V
22 °C 10 km+ - 360° 360° 0 kt METAR SBCF 290100Z 00000KT 9999 FEW043 22/15 Q1021
21:00
V
22 °C 10 km+ - 010° 010° 3 kt METAR SBCF 290000Z 01003KT CAVOK 22/14 Q1020
20:00
V
24 °C 10 km+ - 360° 360° 0 kt METAR SBCF 282300Z 00000KT 9999 FEW048 24/14 Q1020
19:00
V
25 °C 10 km+ - 360° 360° 0 kt METAR SBCF 282200Z 00000KT CAVOK 25/14 Q1020
18:00
V
25 °C 10 km+ - 300° 300° 2 kt METAR SBCF 282100Z 30002KT 9999 FEW046 25/14 Q1020
15:00
V
28 °C 10 km+ - 230° 230° 5 kt METAR SBCF 281800Z 23005KT 200V260 9999 SCT045 28/14 Q1019
14:00
V
28 °C 10 km+ 4.300 ft 300° 300° 5 kt METAR SBCF 281700Z 30005KT 240V350 9999 BKN043 28/15 Q1020
13:00
V
28 °C 10 km+ - 360° 360° 4 kt METAR SBCF 281600Z 36004KT 9999 SCT040 28/15 Q1020
12:00
V
26 °C 10 km+ - 100° 100° 3 kt METAR SBCF 281500Z 10003KT 9999 SCT040 26/15 Q1022
11:00
V
25 °C 10 km+ - 270° 270° 3 kt METAR SBCF 281400Z 27003KT 9999 FEW030 25/15 Q1022
10:00
V
24 °C 10 km+ - 050° 050° 3 kt METAR SBCF 281300Z 05003KT CAVOK 24/16 Q1023
09:00
V
22 °C 10 km+ - 040° 040° 5 kt METAR SBCF 281200Z 04005KT CAVOK 22/15 Q1023
08:00
V
17 °C 10 km+ - 190° 190° 2 kt METAR SBCF 281100Z 19002KT CAVOK 17/15 Q1022
07:00
V
18 °C 10 km+ - 120° 120° 4 kt METAR SBCF 281000Z 12004KT CAVOK 18/15 Q1021
06:00
V
17 °C 10 km+ - 130° 130° 3 kt METAR SBCF 280900Z 13003KT CAVOK 17/15 Q1021
05:00
V
17 °C 10 km+ - 360° 360° 0 kt METAR SBCF 280800Z 00000KT CAVOK 17/15 Q1021
04:00
V
18 °C 10 km+ - 100° 100° 2 kt METAR SBCF 280700Z 10002KT CAVOK 18/15 Q1021
03:00
V
18 °C 10 km+ - 150° 150° 1 kt METAR SBCF 280600Z 15001KT CAVOK 18/15 Q1021
02:00
V
18 °C 10 km+ - 140° 140° 2 kt METAR SBCF 280500Z 14002KT CAVOK 18/15 Q1021
01:00
V
19 °C 10 km+ - 100° 100° 3 kt METAR SBCF 280400Z 10003KT CAVOK 19/15 Q1021
00:00
V
19 °C 10 km+ - 150° 150° 2 kt METAR SBCF 280300Z 15002KT CAVOK 19/15 Q1022

2024年5月27日

时间 代码 天气 温度 能见度 天花板 METAR/SPECI
23:00
V
20 °C 10 km+ - 130° 130° 3 kt METAR SBCF 280200Z 13003KT CAVOK 20/15 Q1022
报告变更